This is the latest recevied weather packets stored in our database for station/object W4NDF-13. If no packets are shown the sender has not sent any weather packets the latest 10 day(s).
| Time | Temp. | Humidity | Pressure | Rain* | Wind** | Luminosity | Snow |
|---|---|---|---|---|---|---|---|
| 1777837441 | 25° C | 35% | 1021.8 hPa | 0 mm | - | 739 W/m² | - |
| 1777837138 | 23.89° C | 34% | 1021.9 hPa | 0 mm | - | 746 W/m² | - |
| 1777836833 | 23.89° C | 35% | 1022.1 hPa | 0 mm | - | 754 W/m² | - |
| 1777836529 | 23.33° C | 36% | 1022 hPa | 0 mm | - | 764 W/m² | - |
| 1777836225 | 23.89° C | 35% | 1022.1 hPa | 0 mm | - | 770 W/m² | - |
| 1777835921 | 23.89° C | 35% | 1022.1 hPa | 0 mm | - | 776 W/m² | - |
| 1777835619 | 23.89° C | 35% | 1022.3 hPa | 0 mm | - | 784 W/m² | - |
| 1777835315 | 23.89° C | 34% | 1022.4 hPa | 0 mm | - | 790 W/m² | - |
| 1777835012 | 23.89° C | 35% | 1022.2 hPa | 0 mm | - | 794 W/m² | - |
| 1777834709 | 23.89° C | 36% | 1022.4 hPa | 0 mm | - | 799 W/m² | - |
| 1777834405 | 23.89° C | 35% | 1022.4 hPa | 0 mm | - | 806 W/m² | - |
| 1777834106 | 24.44° C | 36% | 1022.5 hPa | 0 mm | - | 811 W/m² | - |
| 1777833802 | 24.44° C | 35% | 1022.5 hPa | 0 mm | - | 815 W/m² | - |
| 1777833498 | 24.44° C | 35% | 1022.3 hPa | 0 mm | - | 817 W/m² | - |
| 1777833195 | 23.33° C | 35% | 1022.6 hPa | 0 mm | - | 822 W/m² | - |
| 1777832892 | 23.89° C | 37% | 1022.4 hPa | 0 mm | - | 824 W/m² | - |
| 1777832592 | 23.33° C | 36% | 1022.6 hPa | 0 mm | - | 828 W/m² | - |
| 1777832288 | 23.89° C | 35% | 1022.8 hPa | 0 mm | - | 828 W/m² | - |
| 1777831985 | 23.33° C | 35% | 1022.5 hPa | 0 mm | - | 828 W/m² | - |
| 1777831682 | 24.44° C | 36% | 1022.7 hPa | 0 mm | - | 829 W/m² | - |
| 1777831380 | 22.78° C | 36% | 1022.8 hPa | 0 mm | - | 830 W/m² | - |
| 1777831075 | 23.33° C | 36% | 1022.8 hPa | 0 mm | - | 830 W/m² | - |
| 1777830774 | 23.89° C | 33% | 1023 hPa | 0 mm | - | 829 W/m² | - |
| 1777830475 | 22.78° C | 35% | 1023.1 hPa | 0 mm | - | 829 W/m² | - |
| 1777830173 | 22.78° C | 35% | 1023.1 hPa | 0 mm | - | 828 W/m² | - |
* Rain latest hour (hover to see other rain measurements)
** Current wind speed in m/s (hover to see current wind gust speed)